Regional Weather Roundup
Issued by NWS Kansas City/Pleasant Hill, MO

Home | Current Version | Previous Version | Text Only | Print | Product List | Glossary On
Versions: 1 2 3 4 5 6 7 8 9 10 11 12 13 14 15 16 17 18 19 20 21 22 23 24 25 26 27 28 29 30 31 32 33 34 35 36 37 38 39 40 41 42 43 44 45 46 47 48 49 50
000
ASUS43 KEAX 231111
RWREAX

WEATHER ROUNDUP FOR EASTERN KANSAS AND NORTHWEST MISSOURI
NATIONAL WEATHER SERVICE KANSAS CITY/PLEASANT HILL MO
600 AM CDT THU OCT 23 2014

KSZ040-057-103>105-MOZ028-029-037-043-231200-
...KANSAS CITY METROPOLITAN AREA...

CITY           SKY/WX    TMP DP  RH WIND       PRES   REMARKS
K.C. INTL      CLOUDY    57  56  96 S9        30.09F
K.C. DOWNTOWN  LGT RAIN  59  55  87 S9        30.09F
LEES SUMMIT    LGT RAIN  56  53  90 S3        30.12S
OLATHE - IXD   LGT RAIN  58  57  97 CALM      30.11F
OLATHE - OJC   LGT RAIN  57  56  96 S6        30.11F
LAWRENCE       LGT RAIN  60  58  92 SW7       30.11F FOG

$$

MOZ001>008-011>017-020>025-030>033-038>040-044>046-053-054-231200-
...NORTHERN AND CENTRAL MISSOURI...

CITY           SKY/WX    TMP DP  RH WIND       PRES   REMARKS
ST. JOSEPH     CLOUDY    57  56  96 S6        30.07F
MOSBY          RAIN      54  54 100 SE3       30.09F
WHITEMAN AFB   MOCLDY    54  49  81 S8        30.12S
CLINTON        CLOUDY    55  50  82 S5        30.15S
SEDALIA        CLOUDY    55  46  71 S10       30.15S
WARSAW         NOT AVBL
MARSHALL       CLOUDY    55  50  82 SE6       30.14S
CHILLICOTHE      N/A     55  48  77 S8        30.12F
KIRKSVILLE     CLOUDY    50  45  83 S7        30.14R

$$

MOZ041-047>049-056>058-063>065-088>090-097-231200-
...EASTERN AND SOUTHERN MISSOURI...

CITY           SKY/WX    TMP DP  RH WIND       PRES   REMARKS
ST. LOUIS INTL PTCLDY    43  38  82 SE6       30.20F
SPIRIT OF STL  CLEAR     35  35 100 CALM      30.19S
COLUMBIA       CLOUDY    46  42  86 S7        30.17R
JEFFERSON CITY CLOUDY    45  41  86 SE5       30.18S
MEXICO         MOCLDY    48  46  93 S5        30.17R
HANNIBAL       MOCLDY    48  39  71 S7        30.17R
ROLLA          CLOUDY    45  40  82 S10       30.17S
LEBANON        CLOUDY    50  43  76 SE7       30.16S
OSAGE BEACH    CLOUDY    48  41  76 SE8       30.16F
SPRINGFIELD    CLOUDY    52  44  74 S10       30.16R
BRANSON        CLOUDY    50  45  81 SE5       30.18S
NEVADA         CLOUDY    55  50  82 SE5       30.14
JOPLIN         CLOUDY    57  51  80 S5        30.14S
WEST PLAINS    PTCLDY    37  35  92 CALM      30.20S

$$

IAZ060-094-KSZ022-034>040-054-083-096-NEZ052-066-093-231200-
...KANSAS...SOUTHEAST NEBRASKA AND IOWA...

CITY           SKY/WX    TMP DP  RH WIND       PRES   REMARKS
TOPEKA         LGT RAIN  62  61  96 SE9       30.08F
MANHATTAN      CLOUDY    62  60  93 CALM      30.06S FOG
EMPORIA        CLOUDY    61  60  97 S5        30.08R
CHANUTE        LGT RAIN  60  58  92 S8        30.11S
WICHITA        CLOUDY    61  58  90 S9        30.08S
OMAHA          CLOUDY    62  59  90 S5        30.03S
LINCOLN        PTCLDY    60  58  92 CALM      30.05S FOG
FALLS CITY     CLOUDY    62  60  93 S9        30.04F
LAMONI         CLOUDY    52  47  83 S8        30.07F
DES MOINES     CLOUDY    53  49  86 S9        30.04S

$$




USA.gov is the U.S. government's official web portal to all federal, state and local government web resources and services.